Tracking 19246 objects as of 20-Aug-2018
HD Live streaming from Space Station
objects crossing your sky now

FENGYUN 1C DEB

Track FENGYUN 1C DEB now!
10-day predictions


NORAD ID: 30039
Int'l Code: 1999-025NQ
Perigee: 646.8 km
Apogee: 849.5 km
Inclination: 97.0 °
Period: 99.6 minutes
Semi major axis: 7119 km
RCS: 0.033 m2 (small)
Launch date: May 10, 1999
Source: People's Republic of China (PRC)
Launch site: Taiyaun Space Center, China (TSC)

Note: This is SATELLITE DEBRIS
aabbcc
Your satellite tracking list
Your tracking list is empty




NASA's NSSDC Master Catalog

Two Line Element Set (TLE):
1 30039U 99025NQ  18232.15400515  .00000953  00000-0  24919-3 0  9992
2 30039  97.0047 203.8857 0142371 318.3534 169.8264 14.45308223606754
Source of the keplerian elements: AFSPC